Year,Month,Day,Hour,Minute,Value (Times are PST for temperature in C)
2015,07,19,00,00,22.40
2015,07,19,00,01,22.40
2015,07,19,00,02,22.40
2015,07,19,00,03,22.40
2015,07,19,00,04,22.40
2015,07,19,00,05,22.40
2015,07,19,00,06,22.30
2015,07,19,00,07,22.30
2015,07,19,00,08,22.30
2015,07,19,00,09,22.30
2015,07,19,00,10,22.30
2015,07,19,00,11,22.30
2015,07,19,00,12,22.30
2015,07,19,00,13,22.20
2015,07,19,00,14,22.20
2015,07,19,00,15,22.20
2015,07,19,00,16,22.20
2015,07,19,00,17,22.20
2015,07,19,00,18,22.20
2015,07,19,00,19,22.20
2015,07,19,00,20,22.20
2015,07,19,00,21,22.10
2015,07,19,00,22,22.10
2015,07,19,00,23,22.10
2015,07,19,00,24,22.10
2015,07,19,00,25,22.10
2015,07,19,00,26,22.10
2015,07,19,00,27,22.10
2015,07,19,00,28,22.10
2015,07,19,00,29,22.10
2015,07,19,00,30,22.10
2015,07,19,00,31,22.10
2015,07,19,00,32,22.10
2015,07,19,00,33,22.10
2015,07,19,00,34,22.00
2015,07,19,00,35,22.00
2015,07,19,00,36,21.90
2015,07,19,00,37,21.90
2015,07,19,00,38,21.90
2015,07,19,00,39,21.90
2015,07,19,00,40,21.80
2015,07,19,00,41,21.80
2015,07,19,00,42,21.80
2015,07,19,00,43,21.80
2015,07,19,00,44,21.80
2015,07,19,00,45,21.80
2015,07,19,00,46,21.80
2015,07,19,00,47,21.80
2015,07,19,00,48,21.80
2015,07,19,00,49,21.70
2015,07,19,00,50,21.70
2015,07,19,00,51,21.70
2015,07,19,00,52,21.60
2015,07,19,00,53,21.60
2015,07,19,00,54,21.60
2015,07,19,00,55,21.60
2015,07,19,00,56,21.60
2015,07,19,00,57,21.60
2015,07,19,00,58,21.50
2015,07,19,00,59,21.50
2015,07,19,01,00,21.50
2015,07,19,01,01,21.50
2015,07,19,01,02,21.50
2015,07,19,01,03,21.50
2015,07,19,01,04,21.40
2015,07,19,01,05,21.40
2015,07,19,01,06,21.40
2015,07,19,01,07,21.40
2015,07,19,01,08,21.40
2015,07,19,01,09,21.40
2015,07,19,01,10,21.40
2015,07,19,01,11,21.40
2015,07,19,01,12,21.40
2015,07,19,01,13,21.40
2015,07,19,01,14,21.40
2015,07,19,01,15,21.40
2015,07,19,01,16,21.50
2015,07,19,01,17,21.50
2015,07,19,01,18,21.50
2015,07,19,01,19,21.50
2015,07,19,01,20,21.50
2015,07,19,01,21,21.60
2015,07,19,01,22,21.60
2015,07,19,01,23,21.60
2015,07,19,01,24,21.50
2015,07,19,01,25,21.50
2015,07,19,01,26,21.50
2015,07,19,01,27,21.50
2015,07,19,01,28,21.50
2015,07,19,01,29,21.50
2015,07,19,01,30,21.40
2015,07,19,01,31,21.40
2015,07,19,01,32,21.40
2015,07,19,01,33,21.30
2015,07,19,01,34,21.30
2015,07,19,01,35,21.30
2015,07,19,01,36,21.30
2015,07,19,01,37,21.20
2015,07,19,01,38,21.20
2015,07,19,01,39,21.20
2015,07,19,01,40,21.20
2015,07,19,01,41,21.10
2015,07,19,01,42,21.10
2015,07,19,01,43,21.10
2015,07,19,01,44,21.10
2015,07,19,01,45,21.00
2015,07,19,01,46,21.00
2015,07,19,01,47,21.00
2015,07,19,01,48,21.00
2015,07,19,01,49,20.90
2015,07,19,01,50,20.90
2015,07,19,01,51,20.90
2015,07,19,01,52,20.90
2015,07,19,01,53,20.80
2015,07,19,01,54,20.80
2015,07,19,01,55,20.80
2015,07,19,01,56,20.80
2015,07,19,01,57,20.70
2015,07,19,01,59,20.70
2015,07,19,02,00,20.60
2015,07,19,02,01,20.60
2015,07,19,02,02,20.60
2015,07,19,02,03,20.60
2015,07,19,02,04,20.60
2015,07,19,02,05,20.60
2015,07,19,02,06,20.50
2015,07,19,02,07,20.50
2015,07,19,02,08,20.50
2015,07,19,02,09,20.50
2015,07,19,02,10,20.40
2015,07,19,02,11,20.40
2015,07,19,02,12,20.40
2015,07,19,02,13,20.40
2015,07,19,02,14,20.40
2015,07,19,02,15,20.40
2015,07,19,02,16,20.30
2015,07,19,02,17,20.30
2015,07,19,02,18,20.30
2015,07,19,02,19,20.30
2015,07,19,02,20,20.30
2015,07,19,02,21,20.30
2015,07,19,02,22,20.30
2015,07,19,02,23,20.30
2015,07,19,02,24,20.30
2015,07,19,02,25,20.30
2015,07,19,02,26,20.20
2015,07,19,02,27,20.20
2015,07,19,02,28,20.20
2015,07,19,02,29,20.20
2015,07,19,02,30,20.20
2015,07,19,02,31,20.10
2015,07,19,02,32,20.10
2015,07,19,02,33,20.10
2015,07,19,02,34,20.10
2015,07,19,02,35,20.00
2015,07,19,02,36,20.00
2015,07,19,02,37,20.00
2015,07,19,02,38,20.00
2015,07,19,02,39,20.00
2015,07,19,02,40,20.00
2015,07,19,02,41,20.00
2015,07,19,02,42,20.00
2015,07,19,02,43,20.00
2015,07,19,02,44,20.00
2015,07,19,02,45,20.00
2015,07,19,02,46,20.00
2015,07,19,02,47,20.00
2015,07,19,02,48,20.00
2015,07,19,02,49,20.00
2015,07,19,02,50,20.00
2015,07,19,02,51,20.10
2015,07,19,02,52,20.00
2015,07,19,02,53,20.00
2015,07,19,02,54,20.00
2015,07,19,02,55,20.00
2015,07,19,02,56,19.90
2015,07,19,02,57,19.90
2015,07,19,02,58,19.90
2015,07,19,02,59,19.90
2015,07,19,03,00,19.90
2015,07,19,03,01,19.80
2015,07,19,03,02,19.80
2015,07,19,03,03,19.80
2015,07,19,03,04,19.80
2015,07,19,03,05,19.80
2015,07,19,03,06,19.70
2015,07,19,03,07,19.70
2015,07,19,03,08,19.70
2015,07,19,03,09,19.70
2015,07,19,03,10,19.70
2015,07,19,03,11,19.70
2015,07,19,03,12,19.70
2015,07,19,03,13,19.70
2015,07,19,03,14,19.70
2015,07,19,03,15,19.70
2015,07,19,03,16,19.70
2015,07,19,03,17,19.70
2015,07,19,03,18,19.60
2015,07,19,03,19,19.60
2015,07,19,03,20,19.60
2015,07,19,03,21,19.60
2015,07,19,03,22,19.60
2015,07,19,03,23,19.60
2015,07,19,03,24,19.60
2015,07,19,03,25,19.60
2015,07,19,03,26,19.60
2015,07,19,03,27,19.50
2015,07,19,03,28,19.50
2015,07,19,03,29,19.50
2015,07,19,03,30,19.50
2015,07,19,03,31,19.50
2015,07,19,03,32,19.50
2015,07,19,03,33,19.40
2015,07,19,03,34,19.50
2015,07,19,03,35,19.40
2015,07,19,03,36,19.50
2015,07,19,03,37,19.40
2015,07,19,03,38,19.50
2015,07,19,03,39,19.50
2015,07,19,03,40,19.40
2015,07,19,03,41,19.40
2015,07,19,03,42,19.40
2015,07,19,03,43,19.40
2015,07,19,03,44,19.40
2015,07,19,03,45,19.40
2015,07,19,03,46,19.40
2015,07,19,03,47,19.40
2015,07,19,03,48,19.40
2015,07,19,03,49,19.40
2015,07,19,03,50,19.40
2015,07,19,03,51,19.40
2015,07,19,03,52,19.40
2015,07,19,03,53,19.40
2015,07,19,03,54,19.40
2015,07,19,03,55,19.40
2015,07,19,03,56,19.30
2015,07,19,03,57,19.30
2015,07,19,03,58,19.30
2015,07,19,03,59,19.30
2015,07,19,04,00,19.30
2015,07,19,04,01,19.30
2015,07,19,04,02,19.30
2015,07,19,04,03,19.30
2015,07,19,04,04,19.30
2015,07,19,04,05,19.30
2015,07,19,04,06,19.30
2015,07,19,04,07,19.30
2015,07,19,04,08,19.30
2015,07,19,04,09,19.30
2015,07,19,04,10,19.30
2015,07,19,04,11,19.30
2015,07,19,04,12,19.30
2015,07,19,04,13,19.30
2015,07,19,04,14,19.30
2015,07,19,04,15,19.30
2015,07,19,04,16,19.30
2015,07,19,04,17,19.30
2015,07,19,04,18,19.30
2015,07,19,04,19,19.20
2015,07,19,04,20,19.20
2015,07,19,04,21,19.20
2015,07,19,04,22,19.20
2015,07,19,04,23,19.20
2015,07,19,04,24,19.20
2015,07,19,04,25,19.20
2015,07,19,04,26,19.10
2015,07,19,04,27,19.10
2015,07,19,04,28,19.10
2015,07,19,04,29,19.10
2015,07,19,04,30,19.10
2015,07,19,04,31,19.00
2015,07,19,04,32,19.00
2015,07,19,04,33,19.00
2015,07,19,04,34,19.00
2015,07,19,04,35,19.00
2015,07,19,04,36,18.90
2015,07,19,04,37,18.90
2015,07,19,04,38,18.90
2015,07,19,04,39,18.90
2015,07,19,04,40,18.90
2015,07,19,04,41,18.90
2015,07,19,04,42,18.90
2015,07,19,04,43,18.90
2015,07,19,04,44,18.90
2015,07,19,04,45,18.90
2015,07,19,04,46,18.80
2015,07,19,04,47,18.80
2015,07,19,04,48,18.80
2015,07,19,04,49,18.80
2015,07,19,04,50,18.80
2015,07,19,04,51,18.80
2015,07,19,04,52,18.80
2015,07,19,04,53,18.80
2015,07,19,04,54,18.80
2015,07,19,04,55,18.80
2015,07,19,04,56,18.80
2015,07,19,04,57,18.80
2015,07,19,04,58,18.70
2015,07,19,04,59,18.70
2015,07,19,05,00,18.70
2015,07,19,05,01,18.70
2015,07,19,05,02,18.70
2015,07,19,05,03,18.70
2015,07,19,05,04,18.60
2015,07,19,05,05,18.60
2015,07,19,05,06,18.60
2015,07,19,05,07,18.60
2015,07,19,05,08,18.60
2015,07,19,05,09,18.60
2015,07,19,05,10,18.60
2015,07,19,05,11,18.60
2015,07,19,05,12,18.50
2015,07,19,05,13,18.50
2015,07,19,05,14,18.50
2015,07,19,05,15,18.40
2015,07,19,05,16,18.40
2015,07,19,05,17,18.40
2015,07,19,05,18,18.40
2015,07,19,05,19,18.40
2015,07,19,05,20,18.40
2015,07,19,05,21,18.40
2015,07,19,05,22,18.30
2015,07,19,05,23,18.30
2015,07,19,05,24,18.30
2015,07,19,05,25,18.30
2015,07,19,05,26,18.30
2015,07,19,05,27,18.30
2015,07,19,05,28,18.30
2015,07,19,05,29,18.30
2015,07,19,05,30,18.30
2015,07,19,05,31,18.30
2015,07,19,05,32,18.30
2015,07,19,05,33,18.30
2015,07,19,05,34,18.20
2015,07,19,05,35,18.30
2015,07,19,05,36,18.20
2015,07,19,05,37,18.20
2015,07,19,05,38,18.20
2015,07,19,05,39,18.20
2015,07,19,05,40,18.20
2015,07,19,05,41,18.20
2015,07,19,05,42,18.30
2015,07,19,05,43,18.30
2015,07,19,05,44,18.20
2015,07,19,05,45,18.20
2015,07,19,05,46,18.20
2015,07,19,05,47,18.20
2015,07,19,05,48,18.20
2015,07,19,05,49,18.20
2015,07,19,05,50,18.20
2015,07,19,05,51,18.20
2015,07,19,05,52,18.20
2015,07,19,05,53,18.20
2015,07,19,05,54,18.20
2015,07,19,05,55,18.20
2015,07,19,05,56,18.20
2015,07,19,05,57,18.20
2015,07,19,05,58,18.20
2015,07,19,05,59,18.20
2015,07,19,06,00,18.20
2015,07,19,06,01,18.20
2015,07,19,06,02,18.20
2015,07,19,06,03,18.20
2015,07,19,06,04,18.20
2015,07,19,06,05,18.20
2015,07,19,06,06,18.20
2015,07,19,06,07,18.20
2015,07,19,06,08,18.20
2015,07,19,06,09,18.20
2015,07,19,06,10,18.20
2015,07,19,06,11,18.20
2015,07,19,06,12,18.20
2015,07,19,06,13,18.20
2015,07,19,06,14,18.20
2015,07,19,06,15,18.20
2015,07,19,06,16,18.20
2015,07,19,06,17,18.20
2015,07,19,06,18,18.20
2015,07,19,06,19,18.20
2015,07,19,06,20,18.20
2015,07,19,06,21,18.20
2015,07,19,06,22,18.20
2015,07,19,06,23,18.20
2015,07,19,06,24,18.20
2015,07,19,06,25,18.20
2015,07,19,06,26,18.30
2015,07,19,06,27,18.30
2015,07,19,06,28,18.30
2015,07,19,06,29,18.30
2015,07,19,06,30,18.30
2015,07,19,06,31,18.40
2015,07,19,06,32,18.40
2015,07,19,06,33,18.40
2015,07,19,06,34,18.40
2015,07,19,06,35,18.50
2015,07,19,06,36,18.50
2015,07,19,06,37,18.60
2015,07,19,06,38,18.60
2015,07,19,06,39,18.60
2015,07,19,06,40,18.70
2015,07,19,06,41,18.70
2015,07,19,06,42,18.70
2015,07,19,06,43,18.80
2015,07,19,06,44,18.80
2015,07,19,06,45,18.90
2015,07,19,06,46,18.90
2015,07,19,06,47,19.00
2015,07,19,06,48,19.10
2015,07,19,06,49,19.10
2015,07,19,06,50,19.20
2015,07,19,06,51,19.20
2015,07,19,06,52,19.30
2015,07,19,06,53,19.30
2015,07,19,06,54,19.40
2015,07,19,06,55,19.40
2015,07,19,06,56,19.50
2015,07,19,06,57,19.50
2015,07,19,06,58,19.60
2015,07,19,06,59,19.60
2015,07,19,07,00,19.60
2015,07,19,07,01,19.70
2015,07,19,07,02,19.70
2015,07,19,07,03,19.80
2015,07,19,07,04,19.80
2015,07,19,07,05,19.80
2015,07,19,07,06,19.90
2015,07,19,07,07,19.90
2015,07,19,07,08,20.10
2015,07,19,07,09,20.10
2015,07,19,07,10,20.20
2015,07,19,07,11,20.20
2015,07,19,07,12,20.30
2015,07,19,07,13,20.30
2015,07,19,07,14,20.40
2015,07,19,07,15,20.40
2015,07,19,07,16,20.50
2015,07,19,07,17,20.50
2015,07,19,07,18,20.60
2015,07,19,07,19,20.60
2015,07,19,07,20,20.70
2015,07,19,07,21,20.80
2015,07,19,07,22,20.80
2015,07,19,07,23,20.80
2015,07,19,07,24,20.90
2015,07,19,07,25,20.90
2015,07,19,07,26,20.90
2015,07,19,07,27,20.90
2015,07,19,07,28,21.00
2015,07,19,07,29,21.00
2015,07,19,07,30,21.10
2015,07,19,07,31,21.10
2015,07,19,07,32,21.20
2015,07,19,07,33,21.20
2015,07,19,07,34,21.30
2015,07,19,07,35,21.30
2015,07,19,07,36,21.40
2015,07,19,07,37,21.40
2015,07,19,07,38,21.60
2015,07,19,07,39,21.70
2015,07,19,07,40,21.80
2015,07,19,07,41,21.90
2015,07,19,07,42,21.90
2015,07,19,07,43,22.00
2015,07,19,07,44,22.10
2015,07,19,07,45,22.10
2015,07,19,07,46,22.20
2015,07,19,07,47,22.20
2015,07,19,07,48,22.20
2015,07,19,07,49,22.30
2015,07,19,07,50,22.30
2015,07,19,07,51,22.30
2015,07,19,07,52,22.30
2015,07,19,07,53,22.30
2015,07,19,07,54,22.40
2015,07,19,07,55,22.40
2015,07,19,07,56,22.40
2015,07,19,07,57,22.40
2015,07,19,07,58,22.50
2015,07,19,07,59,22.50
2015,07,19,08,00,22.50
2015,07,19,08,01,22.60
2015,07,19,08,02,22.60
2015,07,19,08,03,22.60
2015,07,19,08,04,22.60
2015,07,19,08,05,22.60
2015,07,19,08,06,22.60
2015,07,19,08,07,22.60
2015,07,19,08,08,22.60
2015,07,19,08,09,22.60
2015,07,19,08,10,22.70
2015,07,19,08,11,22.70
2015,07,19,08,12,22.70
2015,07,19,08,13,22.80
2015,07,19,08,14,22.80
2015,07,19,08,15,22.80
2015,07,19,08,16,22.80
2015,07,19,08,17,22.80
2015,07,19,08,18,22.90
2015,07,19,08,19,22.90
2015,07,19,08,20,23.00
2015,07,19,08,21,23.10
2015,07,19,08,22,23.10
2015,07,19,08,23,23.10
2015,07,19,08,24,23.20
2015,07,19,08,25,23.20
2015,07,19,08,26,23.20
2015,07,19,08,27,23.20
2015,07,19,08,28,23.20
2015,07,19,08,29,23.20
2015,07,19,08,30,23.30
2015,07,19,08,31,23.30
2015,07,19,08,32,23.30
2015,07,19,08,33,23.40
2015,07,19,08,34,23.40
2015,07,19,08,35,23.50
2015,07,19,08,36,23.60
2015,07,19,08,37,23.70
2015,07,19,08,38,23.70
2015,07,19,08,39,23.70
2015,07,19,08,40,23.80
2015,07,19,08,41,23.80
2015,07,19,08,42,23.90
2015,07,19,08,43,23.90
2015,07,19,08,44,24.00
2015,07,19,08,45,24.10
2015,07,19,08,46,24.10
2015,07,19,08,47,24.10
2015,07,19,08,48,24.20
2015,07,19,08,49,24.20
2015,07,19,08,50,24.20
2015,07,19,08,51,24.30
2015,07,19,08,52,24.30
2015,07,19,08,53,24.30
2015,07,19,08,54,24.40
2015,07,19,08,56,24.50
2015,07,19,08,57,24.60
2015,07,19,08,58,24.60
2015,07,19,08,59,24.70
2015,07,19,09,00,24.70
2015,07,19,09,01,24.80
2015,07,19,09,02,24.80
2015,07,19,09,03,24.90
2015,07,19,09,04,24.90
2015,07,19,09,05,24.90
2015,07,19,09,06,24.90
2015,07,19,09,07,24.80
2015,07,19,09,08,24.80
2015,07,19,09,09,24.80
2015,07,19,09,10,24.80
2015,07,19,09,11,24.70
2015,07,19,09,12,24.70
2015,07,19,09,13,24.80
2015,07,19,09,14,24.80
2015,07,19,09,15,24.80
2015,07,19,09,16,24.90
2015,07,19,09,17,24.90
2015,07,19,09,18,24.90
2015,07,19,09,19,24.90
2015,07,19,09,20,24.90
2015,07,19,09,21,25.00
2015,07,19,09,22,25.00
2015,07,19,09,23,25.00
2015,07,19,09,24,25.10
2015,07,19,09,25,25.10
2015,07,19,09,26,25.10
2015,07,19,09,27,25.20
2015,07,19,09,28,25.20
2015,07,19,09,29,25.20
2015,07,19,09,30,25.20
2015,07,19,09,31,25.20
2015,07,19,09,32,25.10
2015,07,19,09,33,25.10
2015,07,19,09,34,25.20
2015,07,19,09,35,25.20
2015,07,19,09,36,25.30
2015,07,19,09,37,25.30
2015,07,19,09,38,25.40
2015,07,19,09,39,25.50
2015,07,19,09,40,25.60
2015,07,19,09,41,25.70
2015,07,19,09,42,25.70
2015,07,19,09,43,25.80
2015,07,19,09,44,25.90
2015,07,19,09,45,25.90
2015,07,19,09,46,25.90
2015,07,19,09,47,26.10
2015,07,19,09,48,26.10
2015,07,19,09,49,26.20
2015,07,19,09,50,26.20
2015,07,19,09,51,26.20
2015,07,19,09,52,26.30
2015,07,19,09,53,26.30
2015,07,19,09,54,26.30
2015,07,19,09,55,26.30
2015,07,19,09,56,26.40
2015,07,19,09,57,26.50
2015,07,19,09,58,26.60
2015,07,19,09,59,26.60
2015,07,19,10,00,26.60
2015,07,19,10,01,26.70
2015,07,19,10,02,26.80
2015,07,19,10,03,26.90
2015,07,19,10,04,27.00
2015,07,19,10,05,27.20
2015,07,19,10,06,27.20
2015,07,19,10,07,27.20
2015,07,19,10,08,27.20
2015,07,19,10,09,27.30
2015,07,19,10,10,27.30
2015,07,19,10,11,27.30
2015,07,19,10,12,27.40
2015,07,19,10,13,27.60
2015,07,19,10,14,27.60
2015,07,19,10,15,27.80
2015,07,19,10,16,27.80
2015,07,19,10,17,27.90
2015,07,19,10,18,28.00
2015,07,19,10,19,28.10
2015,07,19,10,20,28.10
2015,07,19,10,21,28.20
2015,07,19,10,22,28.20
2015,07,19,10,23,28.30
2015,07,19,10,24,28.40
2015,07,19,10,25,28.40
2015,07,19,10,26,28.40
2015,07,19,10,27,28.40
2015,07,19,10,28,28.40
2015,07,19,10,29,28.40
2015,07,19,10,30,28.40
2015,07,19,10,31,28.40
2015,07,19,10,32,28.60
2015,07,19,10,33,28.60
2015,07,19,10,34,28.70
2015,07,19,10,35,28.70
2015,07,19,10,36,28.80
2015,07,19,10,37,28.80
2015,07,19,10,38,28.90
2015,07,19,10,39,28.90
2015,07,19,10,40,28.90
2015,07,19,10,41,28.90
2015,07,19,10,42,28.80
2015,07,19,10,43,28.80
2015,07,19,10,44,28.70
2015,07,19,10,45,28.70
2015,07,19,10,46,28.80
2015,07,19,10,47,28.80
2015,07,19,10,48,28.80
2015,07,19,10,49,28.90
2015,07,19,10,50,28.90
2015,07,19,10,51,28.90
2015,07,19,10,52,28.90
2015,07,19,10,53,28.80
2015,07,19,10,54,28.80
2015,07,19,10,55,28.80
2015,07,19,10,56,28.80
2015,07,19,10,57,28.90
2015,07,19,10,58,28.90
2015,07,19,10,59,28.90
2015,07,19,11,00,28.90
2015,07,19,11,01,28.90
2015,07,19,11,02,28.90
2015,07,19,11,03,28.90
2015,07,19,11,04,28.90
2015,07,19,11,05,28.90
2015,07,19,11,06,29.10
2015,07,19,11,07,29.20
2015,07,19,11,08,29.20
2015,07,19,11,09,29.30
2015,07,19,11,10,29.30
2015,07,19,11,11,29.30
2015,07,19,11,12,29.30
2015,07,19,11,13,29.20
2015,07,19,11,14,29.30
2015,07,19,11,15,29.30
2015,07,19,11,16,29.40
2015,07,19,11,17,29.50
2015,07,19,11,18,29.70
2015,07,19,11,19,29.80
2015,07,19,11,20,29.80
2015,07,19,11,21,29.90
2015,07,19,11,22,29.90
2015,07,19,11,23,30.10
2015,07,19,11,24,30.10
2015,07,19,11,25,30.20
2015,07,19,11,26,30.10
2015,07,19,11,27,30.10
2015,07,19,11,28,30.10
2015,07,19,11,29,30.20
2015,07,19,11,30,30.20
2015,07,19,11,31,30.20
2015,07,19,11,32,30.20
2015,07,19,11,33,30.20
2015,07,19,11,34,30.20
2015,07,19,11,35,30.20
2015,07,19,11,36,30.20
2015,07,19,11,37,30.30
2015,07,19,11,38,30.30
2015,07,19,11,39,30.40
2015,07,19,11,40,30.40
2015,07,19,11,41,30.40
2015,07,19,11,42,30.40
2015,07,19,11,43,30.40
2015,07,19,11,44,30.40
2015,07,19,11,45,30.40
2015,07,19,11,46,30.30
2015,07,19,11,47,30.30
2015,07,19,11,48,30.20
2015,07,19,11,49,30.20
2015,07,19,11,50,30.10
2015,07,19,11,51,30.10
2015,07,19,11,52,30.10
2015,07,19,11,53,30.00
2015,07,19,11,54,29.90
2015,07,19,11,55,29.80
2015,07,19,11,56,29.70
2015,07,19,11,57,29.60
2015,07,19,11,58,29.60
2015,07,19,11,59,29.60
2015,07,19,12,00,29.60
2015,07,19,12,01,29.60
2015,07,19,12,02,29.70
2015,07,19,12,03,29.70
2015,07,19,12,04,29.80
2015,07,19,12,05,29.90
2015,07,19,12,06,30.00
2015,07,19,12,07,30.10
2015,07,19,12,08,30.10
2015,07,19,12,09,30.20
2015,07,19,12,10,30.20
2015,07,19,12,11,30.30
2015,07,19,12,12,30.40
2015,07,19,12,13,30.40
2015,07,19,12,14,30.60
2015,07,19,12,15,30.70
2015,07,19,12,16,30.80
2015,07,19,12,17,30.90
2015,07,19,12,18,31.10
2015,07,19,12,19,31.20
2015,07,19,12,20,31.30
2015,07,19,12,21,31.30
2015,07,19,12,22,31.30
2015,07,19,12,23,31.40
2015,07,19,12,24,31.40
2015,07,19,12,25,31.40
2015,07,19,12,26,31.40
2015,07,19,12,27,31.40
2015,07,19,12,28,31.40
2015,07,19,12,29,31.40
2015,07,19,12,30,31.40
2015,07,19,12,31,31.40
2015,07,19,12,32,31.40
2015,07,19,12,33,31.60
2015,07,19,12,34,31.60
2015,07,19,12,35,31.60
2015,07,19,12,36,31.50
2015,07,19,12,37,31.40
2015,07,19,12,38,31.40
2015,07,19,12,39,31.30
2015,07,19,12,40,31.30
2015,07,19,12,41,31.30
2015,07,19,12,42,31.30
2015,07,19,12,43,31.40
2015,07,19,12,44,31.40
2015,07,19,12,45,31.40
2015,07,19,12,46,31.50
2015,07,19,12,47,31.60
2015,07,19,12,48,31.70
2015,07,19,12,49,31.70
2015,07,19,12,50,31.80
2015,07,19,12,51,31.80
2015,07,19,12,52,31.90
2015,07,19,12,53,32.10
2015,07,19,12,54,32.20
2015,07,19,12,55,32.30
2015,07,19,12,56,32.40
2015,07,19,12,57,32.50
2015,07,19,12,58,32.60
2015,07,19,12,59,32.70
2015,07,19,13,00,32.80
2015,07,19,13,01,32.80
2015,07,19,13,02,32.80
2015,07,19,13,03,32.80
2015,07,19,13,04,32.80
2015,07,19,13,05,32.80
2015,07,19,13,06,32.90
2015,07,19,13,07,33.10
2015,07,19,13,08,33.20
2015,07,19,13,09,33.30
2015,07,19,13,10,33.50
2015,07,19,13,11,33.50
2015,07,19,13,12,33.60
2015,07,19,13,13,33.60
2015,07,19,13,14,33.60
2015,07,19,13,15,33.60
2015,07,19,13,16,33.70
2015,07,19,13,17,33.80
2015,07,19,13,18,33.90
2015,07,19,13,19,34.10
2015,07,19,13,20,34.20
2015,07,19,13,21,34.30
2015,07,19,13,22,34.40
2015,07,19,13,23,34.50
2015,07,19,13,24,34.50
2015,07,19,13,25,34.50
2015,07,19,13,26,34.50
2015,07,19,13,27,34.40
2015,07,19,13,28,34.40
2015,07,19,13,29,34.30
2015,07,19,13,30,34.30
2015,07,19,13,31,34.30
2015,07,19,13,32,34.40
2015,07,19,13,33,34.40
2015,07,19,13,34,34.40
2015,07,19,13,35,34.40
2015,07,19,13,36,34.30
2015,07,19,13,37,34.30
2015,07,19,13,38,34.30
2015,07,19,13,39,34.20
2015,07,19,13,40,34.20
2015,07,19,13,41,34.20
2015,07,19,13,42,34.20
2015,07,19,13,43,34.20
2015,07,19,13,44,34.20
2015,07,19,13,45,34.20
2015,07,19,13,46,34.10
2015,07,19,13,47,34.10
2015,07,19,13,48,34.10
2015,07,19,13,49,34.10
2015,07,19,13,50,34.20
2015,07,19,13,51,34.20
2015,07,19,13,52,34.20
2015,07,19,13,53,34.30
2015,07,19,13,54,34.30
2015,07,19,13,55,34.30
2015,07,19,13,56,34.30
2015,07,19,13,57,34.30
2015,07,19,13,58,34.30
2015,07,19,13,59,34.40
2015,07,19,14,00,34.40
2015,07,19,14,01,34.30
2015,07,19,14,02,34.30
2015,07,19,14,03,34.30
2015,07,19,14,04,34.30
2015,07,19,14,05,34.20
2015,07,19,14,06,34.10
2015,07,19,14,07,34.00
2015,07,19,14,08,34.00
2015,07,19,14,09,34.10
2015,07,19,14,10,34.10
2015,07,19,14,11,34.20
2015,07,19,14,12,34.30
2015,07,19,14,13,34.30
2015,07,19,14,14,34.30
2015,07,19,14,15,34.30
2015,07,19,14,16,34.30
2015,07,19,14,17,34.30
2015,07,19,14,18,34.20
2015,07,19,14,19,34.20
2015,07,19,14,20,34.20
2015,07,19,14,21,34.10
2015,07,19,14,22,34.00
2015,07,19,14,23,33.90
2015,07,19,14,24,33.90
2015,07,19,14,25,33.80
2015,07,19,14,26,33.80
2015,07,19,14,27,33.80
2015,07,19,14,28,33.70
2015,07,19,14,29,33.70
2015,07,19,14,30,33.70
2015,07,19,14,31,33.60
2015,07,19,14,32,33.60
2015,07,19,14,33,33.50
2015,07,19,14,34,33.40
2015,07,19,14,35,33.40
2015,07,19,14,36,33.40
2015,07,19,14,37,33.30
2015,07,19,14,38,33.30
2015,07,19,14,39,33.30
2015,07,19,14,40,33.30
2015,07,19,14,41,33.40
2015,07,19,14,42,33.40
2015,07,19,14,43,33.50
2015,07,19,14,44,33.70
2015,07,19,14,45,33.90
2015,07,19,14,46,34.10
2015,07,19,14,47,34.20
2015,07,19,14,48,34.20
2015,07,19,14,49,34.30
2015,07,19,14,50,34.30
2015,07,19,14,51,34.40
2015,07,19,14,52,34.40
2015,07,19,14,53,34.40
2015,07,19,14,54,34.30
2015,07,19,14,55,34.30
2015,07,19,14,56,34.30
2015,07,19,14,57,34.40
2015,07,19,14,58,34.50
2015,07,19,14,59,34.60
2015,07,19,15,00,34.60
2015,07,19,15,01,34.50
2015,07,19,15,02,34.40
2015,07,19,15,03,34.20
2015,07,19,15,04,34.20
2015,07,19,15,05,33.90
2015,07,19,15,06,33.90
2015,07,19,15,07,33.80
2015,07,19,15,08,33.80
2015,07,19,15,09,33.80
2015,07,19,15,10,33.70
2015,07,19,15,11,33.70
2015,07,19,15,12,33.70
2015,07,19,15,13,33.70
2015,07,19,15,14,33.70
2015,07,19,15,15,33.60
2015,07,19,15,16,33.60
2015,07,19,15,17,33.60
2015,07,19,15,18,33.60
2015,07,19,15,19,33.60
2015,07,19,15,20,33.50
2015,07,19,15,21,33.50
2015,07,19,15,22,33.50
2015,07,19,15,23,33.60
2015,07,19,15,24,33.60
2015,07,19,15,25,33.60
2015,07,19,15,26,33.60
2015,07,19,15,27,33.60
2015,07,19,15,28,33.60
2015,07,19,15,29,33.70
2015,07,19,15,30,33.70
2015,07,19,15,31,33.70
2015,07,19,15,32,33.60
2015,07,19,15,33,33.60
2015,07,19,15,34,33.60
2015,07,19,15,35,33.50
2015,07,19,15,36,33.50
2015,07,19,15,37,33.50
2015,07,19,15,38,33.60
2015,07,19,15,39,33.50
2015,07,19,15,40,33.40
2015,07,19,15,41,33.40
2015,07,19,15,42,33.40
2015,07,19,15,43,33.50
2015,07,19,15,44,33.50
2015,07,19,15,45,33.60
2015,07,19,15,46,33.60
2015,07,19,15,47,33.60
2015,07,19,15,48,33.60
2015,07,19,15,49,33.60
2015,07,19,15,50,33.60
2015,07,19,15,51,33.70
2015,07,19,15,52,33.70
2015,07,19,15,53,33.70
2015,07,19,15,54,33.70
2015,07,19,15,55,33.70
2015,07,19,15,56,33.70
2015,07,19,15,57,33.80
2015,07,19,15,58,33.80
2015,07,19,15,59,33.90
2015,07,19,16,00,33.90
2015,07,19,16,01,33.90
2015,07,19,16,02,33.90
2015,07,19,16,03,33.90
2015,07,19,16,04,33.80
2015,07,19,16,05,33.80
2015,07,19,16,06,33.80
2015,07,19,16,07,33.80
2015,07,19,16,08,33.80
2015,07,19,16,09,33.80
2015,07,19,16,10,33.70
2015,07,19,16,11,33.70
2015,07,19,16,12,33.60
2015,07,19,16,13,33.60
2015,07,19,16,14,33.50
2015,07,19,16,15,33.40
2015,07,19,16,16,33.40
2015,07,19,16,17,33.40
2015,07,19,16,18,33.50
2015,07,19,16,19,33.60
2015,07,19,16,20,33.60
2015,07,19,16,21,33.60
2015,07,19,16,22,33.60
2015,07,19,16,23,33.50
2015,07,19,16,24,33.50
2015,07,19,16,25,33.50
2015,07,19,16,26,33.50
2015,07,19,16,27,33.40
2015,07,19,16,28,33.50
2015,07,19,16,29,33.50
2015,07,19,16,30,33.50
2015,07,19,16,31,33.60
2015,07,19,16,32,33.60
2015,07,19,16,33,33.60
2015,07,19,16,35,33.60
2015,07,19,16,36,33.60
2015,07,19,16,37,33.40
2015,07,19,16,38,33.40
2015,07,19,16,39,33.40
2015,07,19,16,40,33.40
2015,07,19,16,41,33.40
2015,07,19,16,42,33.30
2015,07,19,16,43,33.30
2015,07,19,16,44,33.40
2015,07,19,16,45,33.30
2015,07,19,16,46,33.30
2015,07,19,16,47,33.20
2015,07,19,16,48,33.20
2015,07,19,16,49,33.30
2015,07,19,16,50,33.30
2015,07,19,16,51,33.30
2015,07,19,16,52,33.30
2015,07,19,16,53,33.30
2015,07,19,16,54,33.30
2015,07,19,16,55,33.30
2015,07,19,16,56,33.40
2015,07,19,16,57,33.40
2015,07,19,16,58,33.50
2015,07,19,16,59,33.60
2015,07,19,17,00,33.60
2015,07,19,17,01,33.60
2015,07,19,17,02,33.50
2015,07,19,17,03,33.40
2015,07,19,17,04,33.40
2015,07,19,17,05,33.40
2015,07,19,17,06,33.40
2015,07,19,17,07,33.30
2015,07,19,17,08,33.30
2015,07,19,17,09,33.30
2015,07,19,17,10,33.20
2015,07,19,17,11,33.20
2015,07,19,17,12,33.10
2015,07,19,17,13,33.10
2015,07,19,17,14,33.10
2015,07,19,17,15,32.90
2015,07,19,17,16,32.90
2015,07,19,17,17,32.90
2015,07,19,17,18,32.80
2015,07,19,17,19,32.80
2015,07,19,17,20,32.80
2015,07,19,17,21,32.90
2015,07,19,17,22,32.90